TimeEDT,TemperatureF,Dew PointF,Humidity,Sea Level PressureIn,VisibilityMPH,Wind Direction,Wind SpeedMPH,Gust SpeedMPH,PrecipitationIn,Events,Conditions,WindDirDegrees,DateUTC
12:53 AM,57.9,54.0,87,29.88,7.0,West,6.9,-,0.00,Rain,Light Rain,280,2013-04-01 04:53:00
1:53 AM,57.0,54.0,89,29.87,10.0,WSW,6.9,-,0.00,,Overcast,240,2013-04-01 05:53:00
3:53 AM,57.0,54.0,89,29.87,10.0,WSW,5.8,-,N/A,,Overcast,240,2013-04-01 07:53:00
4:53 AM,55.9,53.1,90,29.86,10.0,West,3.5,-,N/A,,Scattered Clouds,270,2013-04-01 08:53:00
5:26 AM,55.4,53.6,94,29.89,10.0,WNW,4.6,-,N/A,,Scattered Clouds,290,2013-04-01 09:26:00
5:37 AM,55.4,53.6,94,29.89,10.0,WNW,4.6,-,N/A,,Mostly Cloudy,290,2013-04-01 09:37:00
5:53 AM,55.0,53.1,93,29.87,10.0,NW,3.5,-,N/A,,Mostly Cloudy,310,2013-04-01 09:53:00
6:11 AM,55.4,53.6,94,29.90,9.0,NW,6.9,-,N/A,,Mostly Cloudy,310,2013-04-01 10:11:00
6:49 AM,53.6,51.8,94,29.91,9.0,NW,4.6,-,N/A,,Scattered Clouds,310,2013-04-01 10:49:00
7:53 AM,53.1,51.1,93,29.92,7.0,WNW,4.6,-,0.01,,Clear,300,2013-04-01 11:53:00
8:53 AM,55.9,50.0,80,29.95,10.0,NW,8.1,-,N/A,,Clear,310,2013-04-01 12:53:00
9:53 AM,59.0,44.1,58,29.96,10.0,WNW,6.9,-,N/A,,Clear,290,2013-04-01 13:53:00
10:53 AM,63.0,37.0,38,29.96,10.0,North,10.4,-,N/A,,Clear,350,2013-04-01 14:53:00
11:53 AM,64.9,35.1,33,29.97,10.0,NW,10.4,-,N/A,,Clear,320,2013-04-01 15:53:00
12:53 PM,66.0,34.0,30,29.97,10.0,NW,13.8,17.3,N/A,,Clear,310,2013-04-01 16:53:00
1:53 PM,68.0,34.0,28,29.96,10.0,West,13.8,20.7,N/A,,Clear,280,2013-04-01 17:53:00
2:53 PM,69.1,34.0,27,29.95,10.0,NW,16.1,25.3,N/A,,Clear,320,2013-04-01 18:53:00
3:53 PM,68.0,36.0,31,29.95,10.0,WNW,15.0,21.9,N/A,,Clear,290,2013-04-01 19:53:00
4:53 PM,68.0,37.9,33,29.95,10.0,West,16.1,21.9,N/A,,Mostly Cloudy,280,2013-04-01 20:53:00
5:53 PM,66.0,37.9,36,29.96,10.0,NW,11.5,-,N/A,,Mostly Cloudy,320,2013-04-01 21:53:00
6:53 PM,66.0,39.0,37,29.96,10.0,WNW,8.1,-,N/A,,Clear,300,2013-04-01 22:53:00
7:53 PM,64.0,36.0,35,29.96,10.0,West,11.5,18.4,N/A,,Clear,280,2013-04-01 23:53:00
8:53 PM,61.0,37.0,41,29.97,10.0,WNW,5.8,-,N/A,,Clear,300,2013-04-02 00:53:00
9:53 PM,59.0,39.0,48,30.00,10.0,NW,6.9,-,N/A,,Clear,310,2013-04-02 01:53:00
10:53 PM,57.0,39.9,53,30.01,10.0,WNW,6.9,-,N/A,,Clear,300,2013-04-02 02:53:00
11:53 PM,55.0,39.9,57,30.02,10.0,NW,5.8,-,N/A,,Clear,310,2013-04-02 03:53:00